Wind_Speed
58 59 59 58 58 58 58 57 56 56 56 55 55 54 54 55 55 55 54 54 54 54 53 53 52 51 50 48 47 46 46 46 46 47 48 49 49 49 50 50 50 51 52 53 54 55 55 56 56 57 58 59 59 59 58 57 55 54 53 52 52 52 52 52 52 53 54 56 56 57 57 56 55 54 53 52 52 53 57 60 61 60 57 55 54 56
57 58 58 58 57 57 57 56 55 55 55 55 54 54 53 53 53 53 53 53 53 53 53 52 52 51 50 48 47 45 44 44 44 45 46 47 47 48 48 48 49 50 51 52 53 54 55 55 55 56 57 58 59 59 58 57 56 55 54 53 52 51 51 52 52 53 54 55 56 57 57 58 59 60 59 57 55 55 57 61 63 62 59 56 56 57
57 57 57 57 56 56 56 55 54 54 53 53 53 53 52 52 52 52 52 52 52 52 52 51 51 50 49 48 47 46 44 43 43 43 43 44 45 46 46 47 47 48 49 51 52 53 54 54 55 55 56 57 58 58 58 58 57 56 54 53 52 51 51 51 52 53 53 54 55 56 57 58 60 62 63 64 63 62 64 65 65 63 60 58 57 57
57 57 57 56 55 55 54 54 53 53 52 52 52 51 51 50 50 50 50 50 50 50 50 50 49 49 48 47 46 45 44 43 42 42 42 42 43 44 44 45 46 46 48 49 50 52 53 54 54 54 55 56 57 58 58 58 57 56 55 53 52 51 51 51 52 52 53 54 54 55 56 56 58 60 63 64 66 67 67 66 65 63 60 58 57 58
56 56 55 55 54 54 53 52 52 51 51 51 50 50 49 49 49 49 48 48 48 48 47 47 46 45 45 45 44 43 43 42 42 42 41 41 41 42 42 43 44 45 46 48 49 51 52 53 54 54 54 55 56 57 58 58 57 57 55 54 53 51 51 51 51 52 52 53 54 54 55 55 56 57 59 61 63 64 65 64 63 61 59 58 57 57
55 54 54 53 53 53 52 51 50 50 50 49 49 49 48 48 48 47 47 47 46 45 44 43 43 42 42 42 41 41 41 42 42 42 41 41 40 40 41 42 43 44 45 47 48 50 51 52 53 54 54 55 55 56 57 57 57 56 55 54 53 52 51 51 51 51 52 52 53 53 53 53 54 54 55 57 58 59 60 60 59 58 57 56 56 56
54 53 52 52 52 51 51 50 49 48 48 47 47 47 47 47 46 46 45 44 43 42 42 41 41 40 40 40 40 40 40 41 41 41 40 40 39 39 39 40 41 43 44 46 47 49 50 51 52 53 54 54 55 55 56 56 56 56 55 54 53 52 51 50 50 51 51 52 52 52 52 52 52 52 53 54 55 55 56 56 56 55 55 54 54 54
53 52 51 51 51 50 50 49 48 47 46 45 45 45 45 45 45 44 43 43 42 41 40 40 40 40 39 39 39 40 40 40 40 40 39 39 39 38 38 39 40 41 43 45 47 48 49 51 52 53 54 54 54 55 55 55 55 55 54 53 52 51 50 50 50 50 51 51 52 52 52 52 52 52 52 53 53 54 54 54 53 53 53 53 53 53
51 51 50 49 49 48 48 48 46 45 44 43 43 43 43 43 42 42 42 41 41 41 40 40 40 40 40 39 39 39 39 39 39 39 39 38 38 38 38 38 39 40 42 44 46 47 49 50 51 53 53 54 54 54 54 54 54 54 53 52 51 50 50 49 49 50 50 51 52 52 53 53 53 53 53 53 53 53 53 53 53 52 52 52 52 52
50 49 49 48 47 46 46 46 45 43 42 42 41 41 41 41 41 41 41 41 41 41 41 41 41 41 41 40 39 39 39 39 38 38 38 38 38 38 38 38 39 39 41 42 44 46 48 49 51 52 53 54 54 54 53 53 53 53 52 51 50 49 49 48 49 49 50 51 52 53 53 54 54 54 54 54 54 54 53 53 52 52 51 51 51 51
48 47 47 46 45 44 44 44 43 41 40 40 40 40 40 40 40 41 41 41 41 41 42 42 42 42 41 41 40 40 39 39 39 38 38 38 38 38 39 39 39 39 40 41 43 45 47 48 50 51 52 53 53 53 52 52 51 51 50 50 49 48 48 48 48 49 51 52 52 53 53 54 54 54 54 54 54 54 54 53 52 51 50 50 50 50
45 45 45 44 44 44 43 42 41 40 40 40 41 41 41 40 41 42 43 43 42 42 42 42 42 42 42 42 41 41 40 40 40 40 39 39 39 39 39 39 39 39 39 40 42 44 45 47 49 50 51 52 52 51 50 50 50 49 49 48 47 47 47 47 48 50 51 52 52 52 53 53 53 53 52 52 52 53 53 52 52 50 49 49 48 48
44 44 44 44 44 43 43 42 41 41 41 42 42 43 43 42 43 43 44 44 43 42 42 42 42 42 43 42 42 42 42 41 41 41 41 40 40 39 39 40 40 39 39 40 40 42 44 46 48 49 50 50 50 49 49 48 48 47 47 46 46 46 46 47 49 51 52 52 52 52 51 51 51 51 51 51 51 51 51 51 50 49 47 47 46 46
44 43 43 43 43 43 43 43 43 43 44 44 44 45 45 45 45 45 46 46 45 44 43 43 43 43 43 43 43 43 43 43 42 42 41 41 40 40 40 40 40 40 39 39 39 40 42 44 45 47 48 48 48 47 47 46 46 46 45 45 45 45 46 47 48 49 51 51 51 51 50 50 49 49 49 49 49 49 49 49 48 46 45 44 44 44
44 43 43 44 44 44 44 44 45 46 46 46 46 47 47 47 47 47 47 47 46 45 45 45 45 45 44 44 44 44 44 43 43 42 42 41 41 40 40 41 41 40 39 38 38 38 39 41 43 44 45 46 46 45 45 45 44 44 44 44 44 45 46 48 48 47 45 46 48 50 50 49 49 48 48 48 48 48 48 47 46 44 43 42 42 42
43 43 44 45 45 45 46 47 48 49 49 49 49 49 50 49 49 49 48 48 47 47 47 47 47 47 46 45 45 44 44 43 43 42 42 42 41 41 40 41 41 40 39 37 36 36 36 38 40 41 42 43 43 43 43 43 43 43 43 43 44 45 46 48 48 47 45 44 45 48 49 50 49 49 48 48 48 48 47 47 45 43 41 40 40 40
44 44 45 47 48 49 49 49 50 50 50 51 51 51 51 51 51 50 50 49 49 48 48 48 48 48 47 47 46 44 44 43 43 43 42 42 42 41 41 41 40 40 38 36 34 34 33 34 36 38 39 40 41 41 41 41 41 41 42 42 43 45 46 47 47 47 47 45 44 45 48 49 49 49 48 48 48 48 48 47 45 43 40 39 39 39
45 47 48 50 50 50 50 50 50 50 51 51 52 52 52 52 52 52 51 51 50 49 49 49 48 48 48 47 46 45 44 43 43 43 43 43 42 42 41 41 40 39 37 35 32 31 31 31 32 33 35 37 38 39 40 40 40 41 41 42 43 44 44 45 45 46 47 48 47 46 45 47 48 49 49 48 48 49 49 48 46 43 40 38 38 39
46 48 49 50 50 50 49 49 49 50 51 51 52 52 52 53 53 53 52 52 51 50 50 49 49 49 48 47 46 45 44 44 44 44 44 44 44 43 42 41 40 38 36 33 30 29 28 28 29 30 32 34 36 37 38 39 40 40 41 41 41 42 42 42 43 44 45 46 47 46 43 44 45 46 47 48 49 49 50 50 47 44 40 38 38 38
45 47 48 49 49 49 49 49 49 50 51 52 52 52 53 53 53 53 53 53 52 51 50 49 49 48 47 46 45 44 44 44 44 45 45 45 45 44 42 41 39 37 34 32 29 28 27 26 26 27 28 30 33 35 37 39 39 40 40 40 41 41 41 41 42 42 43 44 45 44 42 41 42 44 45 47 48 49 50 50 48 44 40 38 37 38
43 45 46 47 48 48 49 50 50 50 51 52 52 53 53 53 53 53 53 52 51 50 50 49 48 47 46 45 45 44 44 44 45 46 46 46 45 43 41 39 37 35 33 30 28 27 27 26 25 25 25 27 30 33 35 38 39 40 40 40 41 41 41 41 42 42 43 44 44 44 42 40 40 42 43 44 47 49 50 50 47 43 39 37 37 38
41 43 44 45 46 47 48 49 49 50 50 51 51 52 52 52 52 51 51 50 49 49 49 48 48 47 47 46 46 45 45 45 46 46 46 46 45 43 40 37 35 33 31 29 28 27 26 26 25 24 24 25 27 30 33 35 38 39 40 41 41 42 42 42 43 43 43 44 45 45 44 41 40 40 41 44 46 49 51 50 47 42 39 37 37 38
39 41 41 42 42 43 44 44 45 45 46 46 47 48 48 48 48 48 48 48 47 47 47 47 47 48 48 47 47 46 46 46 46 46 45 45 43 41 38 36 34 32 30 28 27 26 26 25 24 24 23 24 25 27 29 32 35 38 40 41 42 43 43 44 44 44 44 44 45 45 46 45 44 43 44 46 49 51 51 50 46 42 38 37 37 37
37 37 36 36 36 37 38 39 39 39 40 40 41 42 43 44 44 45 45 45 46 46 47 47 47 47 47 47 47 46 45 45 44 44 43 42 40 37 35 33 32 31 29 27 26 26 26 25 24 24 23 23 24 25 27 29 32 35 37 39 41 42 43 44 44 44 44 44 45 46 47 48 48 48 49 50 51 52 52 49 45 41 38 37 37 38
34 34 34 34 34 34 35 35 35 35 35 36 36 37 38 39 40 41 42 43 44 45 45 45 45 46 45 45 45 44 43 42 41 40 38 37 35 33 31 30 30 29 28 27 26 26 26 25 24 23 23 22 23 23 25 27 29 31 33 36 38 39 41 42 43 43 44 44 44 45 47 49 50 51 52 53 53 53 51 48 45 41 39 37 37 37
34 34 34 34 34 34 34 34 34 34 34 34 34 34 34 35 36 37 38 39 40 41 41 42 42 42 41 41 40 40 39 38 36 35 34 33 32 30 28 27 27 28 27 27 26 26 25 24 23 23 22 22 21 22 23 24 26 27 29 31 33 35 37 39 40 41 41 42 42 43 45 48 50 51 53 54 54 53 50 47 44 41 39 37 37 37
34 34 34 34 34 34 34 34 34 34 34 34 33 33 33 33 33 34 35 35 35 36 37 37 38 37 37 36 36 36 35 35 34 32 31 30 30 28 26 25 25 26 26 26 25 25 24 23 22 21 21 20 20 21 21 22 23 24 25 26 28 29 31 33 35 37 38 39 39 40 42 44 47 49 51 52 52 50 48 46 43 40 38 37 37 37
34 34 33 33 33 33 34 34 34 34 34 33 33 32 32 32 32 32 32 32 33 34 35 35 35 35 36 36 35 34 34 34 33 31 29 29 29 27 25 24 24 24 24 24 24 24 23 22 21 20 20 19 19 19 20 20 21 21 22 22 23 24 26 28 30 32 33 34 35 37 38 40 42 45 46 47 48 47 45 43 40 38 37 37 37 37
33 33 32 32 32 32 33 33 33 33 32 32 31 31 32 32 33 33 32 32 33 34 35 35 36 36 37 37 36 35 34 33 31 30 29 29 28 25 23 22 22 22 22 22 23 22 21 20 19 19 19 18 18 18 18 19 19 19 19 19 19 20 21 23 24 26 28 30 31 32 34 35 37 39 41 42 42 41 40 38 37 36 36 36 37 37
33 32 32 31 31 31 31 32 32 31 31 30 29 29 30 31 33 33 33 33 34 35 36 36 36 37 37 36 36 35 34 32 30 29 28 28 27 24 22 22 21 20 20 20 20 20 20 19 18 18 17 17 17 17 17 17 17 17 17 17 17 17 18 19 20 21 23 25 26 28 30 31 33 34 36 37 37 37 36 35 35 35 35 36 37 38
33 32 31 30 29 29 29 29 29 29 29 28 27 27 28 29 31 32 33 33 34 35 35 36 36 35 35 35 34 34 33 31 29 27 27 27 26 23 22 21 20 18 17 18 18 18 18 17 16 16 16 16 16 16 16 16 16 16 16 16 15 15 16 16 17 18 19 21 22 24 25 27 29 30 31 32 33 33 33 33 33 33 34 36 38 40
31 30 29 28 27 27 27 27 27 27 26 26 25 25 26 27 28 30 31 32 33 33 34 34 34 33 32 32 31 31 30 29 27 25 24 25 23 22 20 20 19 18 16 16 17 17 17 16 15 15 15 15 16 16 16 16 16 15 15 15 15 15 15 15 16 17 18 19 20 21 22 24 25 27 28 29 30 30 31 31 32 33 34 37 39 41
29 28 27 26 26 26 26 26 25 25 25 24 24 24 24 25 26 28 29 30 31 31 32 32 32 31 30 29 29 28 28 27 26 24 23 22 22 21 19 19 19 18 17 16 16 16 16 16 16 15 15 15 15 15 15 15 16 16 16 15 15 15 16 16 16 17 17 18 19 20 21 22 23 24 25 27 28 29 30 31 32 34 36 38 40 40
29 28 27 26 26 26 25 25 25 24 24 23 23 24 24 25 26 27 28 28 29 29 29 29 29 29 28 28 27 27 26 26 25 24 22 21 21 20 19 19 19 18 18 18 17 17 17 16 16 16 16 16 16 16 15 15 16 16 16 16 16 16 16 17 17 18 18 19 19 20 20 21 22 23 24 26 27 28 30 31 33 35 37 38 39 39
30 29 27 26 25 25 24 24 24 23 23 23 23 24 25 25 26 27 27 28 28 28 28 28 27 27 26 26 26 25 25 24 24 23 22 20 19 19 19 19 19 18 19 19 19 18 18 18 17 17 18 17 17 16 16 16 16 16 17 17 17 17 17 17 18 18 19 19 20 20 21 21 22 23 24 26 27 29 30 31 33 35 36 37 38 38
30 29 28 25 24 23 22 22 22 22 22 22 23 24 25 26 26 27 27 27 26 26 26 26 25 25 24 24 24 24 23 23 23 22 22 20 19 18 19 18 18 18 19 20 19 19 20 19 19 19 19 19 19 18 17 17 17 17 17 17 18 18 18 18 18 19 19 20 20 21 22 22 23 24 25 26 27 29 30 31 33 34 35 36 37 37
30 29 27 24 22 21 20 20 21 21 22 22 22 24 25 26 27 27 26 26 25 25 24 24 23 23 22 22 22 22 22 22 22 22 22 21 20 19 19 18 18 18 19 19 20 20 20 20 21 20 20 20 20 20 19 19 18 17 17 18 18 19 19 19 19 19 20 20 21 22 22 23 24 25 26 27 28 29 30 31 33 34 35 36 36 37
27 27 25 23 21 20 19 19 20 20 21 21 22 23 24 25 26 26 26 25 24 24 23 23 22 21 21 21 21 21 21 21 22 22 22 22 21 21 20 20 19 18 18 19 19 20 20 20 21 21 21 21 21 21 21 21 20 18 18 18 19 19 20 20 20 20 20 21 21 22 23 24 25 26 27 28 29 30 31 32 33 34 35 35 36 37
25 25 24 22 21 20 19 18 18 19 19 20 21 22 24 24 25 25 25 25 24 24 23 23 22 21 21 20 20 20 20 20 21 21 22 22 22 22 22 21 21 20 19 19 19 20 20 20 20 21 21 21 21 21 21 21 21 20 20 20 20 20 20 21 20 20 21 21 22 23 24 25 26 27 28 29 30 31 32 32 33 34 35 35 36 37
24 24 23 22 21 20 19 18 18 18 18 19 20 21 22 23 23 24 24 24 24 24 23 23 23 22 22 21 20 20 19 19 20 20 21 21 22 22 22 22 22 22 21 21 21 21 20 20 20 21 21 21 21 21 21 21 21 21 21 21 20 20 20 21 21 21 21 22 22 23 24 25 26 27 28 29 30 31 32 32 33 34 34 35 36 36
24 23 23 22 21 20 20 19 19 18 18 19 19 20 20 21 22 22 23 23 23 23 23 24 24 24 23 22 21 21 20 20 19 19 20 20 21 21 22 22 22 22 22 22 22 22 22 21 21 21 21 21 21 21 21 21 21 22 22 21 21 21 21 21 21 22 22 22 23 23 24 25 26 27 28 29 30 31 31 32 32 33 34 34 35 35
23 23 23 23 23 22 22 21 20 20 19 19 19 19 19 20 21 21 22 22 22 23 23 23 24 25 25 24 23 22 21 20 20 20 20 20 20 20 21 21 21 22 22 22 23 23 22 22 22 22 22 22 22 22 22 22 22 22 22 22 22 22 22 22 22 22 22 22 23 24 24 25 26 27 28 28 29 30 30 31 32 32 33 33 34 35
23 23 24 24 25 24 24 23 22 21 20 19 19 19 19 19 20 20 21 22 22 22 23 23 24 25 25 25 24 23 22 21 21 21 21 21 21 21 21 21 21 21 21 22 22 22 23 23 23 22 22 22 23 23 22 23 23 23 22 23 23 22 22 23 23 22 22 23 23 24 24 25 25 26 27 28 28 29 30 31 31 32 32 33 33 34
23 24 24 25 26 26 26 25 24 23 22 21 20 20 19 19 19 20 20 21 22 22 23 24 24 25 25 26 25 25 24 23 22 22 21 21 21 21 21 21 21 21 21 21 22 22 22 23 23 23 23 23 23 23 23 23 23 23 23 23 24 24 23 23 23 23 23 23 24 24 25 25 25 26 27 28 29 29 30 30 31 32 32 33 33 34
24 24 25 25 26 27 27 27 26 25 24 23 22 21 21 20 20 20 20 20 21 22 23 24 25 25 26 26 26 26 25 25 23 23 22 22 22 22 22 22 22 22 22 21 21 21 22 22 23 23 23 23 23 24 24 24 24 24 24 24 25 25 25 25 25 24 24 25 25 25 26 26 26 27 28 29 29 30 30 31 31 32 32 33 34 34
25 25 25 26 26 27 27 27 27 26 25 24 23 23 22 21 21 21 21 21 21 22 23 24 25 26 26 26 26 26 26 26 25 24 23 22 22 22 22 22 22 22 22 22 21 21 21 22 22 22 23 23 24 24 24 24 24 24 25 25 25 26 26 26 26 26 26 26 26 26 27 27 28 29 30 30 31 31 32 32 32 33 33 34 34 35
26 26 26 26 27 27 27 28 27 27 26 25 24 24 23 23 23 23 22 22 22 23 23 24 26 26 27 27 27 27 27 27 27 26 25 24 23 22 22 22 23 22 22 22 22 21 21 21 21 22 22 23 24 24 24 24 24 25 25 25 26 26 26 27 27 27 26 27 27 27 28 29 30 30 31 31 32 32 33 33 33 33 34 34 35 35
27 27 27 28 28 28 28 28 28 28 27 26 25 25 24 24 24 24 24 24 24 24 24 25 26 26 27 27 27 27 27 28 28 27 26 25 24 23 22 23 23 23 23 23 22 21 21 21 21 21 21 22 22 23 24 24 24 25 25 26 26 26 27 27 27 27 27 27 27 28 28 29 30 31 31 32 32 33 33 33 34 34 34 35 35 36
28 29 29 29 29 29 29 29 28 28 28 27 27 26 26 25 25 25 25 25 25 25 25 26 26 27 27 27 28 28 28 28 28 28 27 26 25 24 23 23 23 23 23 23 22 22 21 21 21 21 20 20 21 21 22 23 24 24 25 25 26 26 26 27 27 27 27 26 27 27 28 29 29 30 30 31 32 32 33 33 34 34 34 35 35 36
29 30 30 30 29 29 29 28 29 29 29 29 28 28 27 27 26 26 26 26 26 26 26 26 26 27 27 27 28 28 28 28 28 28 28 27 26 25 24 23 23 23 23 23 23 22 22 21 21 20 20 19 19 19 20 21 22 23 23 24 24 24 24 25 25 25 25 26 26 26 27 27 28 28 29 30 31 32 32 33 33 34 34 35 35 36
29 30 30 29 29 29 28 28 29 29 30 30 30 30 29 29 28 28 27 27 27 27 27 27 27 27 27 27 28 28 28 28 28 28 28 27 26 26 25 24 24 23 23 23 23 23 22 22 21 20 19 18 18 17 18 18 19 20 20 21 21 21 21 21 22 22 23 24 25 25 26 26 27 28 28 29 30 31 32 33 33 34 34 35 35 36
Wind_Direction
288 288 288 288 288 288 287 288 288 288 288 288 288 288 288 289 289 289 289 289 288 288 288 287 287 286 285 284 282 281 280 279 277 276 274 273 272 271 269 268 267 266 265 265 264 263 262 261 259 257 254 252 251 250 249 248 248 247 247 247 246 245 245 245 245 245 245 243 242 239 235 231 229 230 233 238 242 246 249 251 252 253 252 249 244 241
287 287 287 287 287 287 287 288 288 288 288 288 288 289 289 289 289 289 289 288 288 288 288 287 287 286 285 284 282 281 280 279 277 276 275 274 272 271 269 268 266 265 264 264 263 263 262 261 259 257 254 252 251 249 248 248 247 247 247 247 246 246 245 245 245 245 245 244 242 240 237 233 231 230 232 235 239 243 246 248 250 252 252 250 247 244
287 286 286 286 287 287 287 287 287 287 287 288 288 288 289 289 288 288 289 288 288 288 287 287 287 286 285 284 283 281 280 279 278 277 276 274 273 272 270 268 266 265 264 263 262 262 261 260 259 257 254 252 250 249 248 247 247 247 247 247 246 246 246 245 245 245 245 244 243 242 239 236 234 232 232 234 237 240 242 245 248 250 251 250 248 247
286 286 286 286 286 286 286 286 286 286 287 287 287 287 287 287 287 287 287 287 287 287 287 287 286 286 285 284 283 282 281 280 279 278 277 276 274 273 271 269 267 265 263 262 261 261 260 260 258 257 254 252 250 248 247 247 246 246 246 246 246 246 246 246 246 246 245 245 244 243 241 239 237 235 234 235 237 239 241 244 246 248 249 249 249 248
286 286 286 286 286 286 285 286 286 286 286 286 286 286 286 286 286 286 286 286 286 286 286 286 286 286 286 285 285 284 283 283 282 281 280 278 276 275 273 271 268 266 264 262 261 260 260 259 258 257 255 252 250 248 247 246 246 246 246 246 246 246 246 246 246 247 247 246 245 244 242 241 239 238 238 238 239 241 243 244 246 247 248 248 248 249
286 286 286 286 286 286 285 285 286 286 286 286 286 286 286 285 285 285 285 286 286 286 287 287 287 287 287 287 287 287 286 285 285 284 283 282 280 278 275 272 270 267 265 263 261 260 259 258 258 257 255 253 250 248 246 245 245 245 245 245 246 246 246 247 247 247 248 247 247 246 245 243 242 241 241 241 242 243 244 245 246 246 247 247 248 248
286 286 286 286 286 286 285 285 285 286 286 286 285 285 285 285 285 286 286 287 287 288 288 289 289 289 289 289 289 289 288 287 287 286 286 285 283 280 277 274 271 268 265 263 261 260 259 258 257 256 255 253 251 248 246 245 244 244 244 245 245 245 246 247 247 247 248 248 248 247 246 246 245 244 244 244 245 245 246 246 246 246 246 246 247 248
286 286 286 286 286 285 285 285 285 285 285 285 285 285 285 285 286 287 288 289 290 290 291 291 291 291 290 291 290 290 289 289 288 288 287 287 285 283 280 276 272 269 266 264 262 260 259 258 257 256 255 253 251 248 246 244 244 243 244 244 244 245 245 246 247 247 247 247 247 247 246 246 246 246 246 247 247 247 247 247 247 247 247 247 247 248
286 286 285 285 285 285 285 285 284 285 286 286 286 287 287 288 289 290 291 292 292 293 293 293 292 291 291 291 291 290 290 289 289 289 289 289 287 286 283 279 274 270 267 264 262 260 259 258 257 256 255 253 251 249 246 244 243 243 243 243 243 244 245 246 246 247 247 246 246 245 245 245 245 245 246 247 248 248 248 248 248 248 247 247 247 247
285 285 285 285 285 286 286 286 286 287 287 288 288 288 289 290 291 292 293 293 293 293 293 293 292 292 292 291 291 290 290 289 289 289 290 290 289 288 286 282 278 273 269 265 263 261 259 258 257 256 255 254 252 250 247 245 243 242 242 242 243 244 244 245 246 246 246 246 245 244 244 244 244 244 244 245 246 247 248 249 249 249 248 248 248 247
287 287 288 288 288 288 289 289 290 290 290 290 290 290 290 291 292 292 292 292 292 292 292 292 292 292 292 291 291 290 290 290 289 289 289 290 290 289 288 286 282 278 273 268 264 261 259 258 257 256 255 254 253 251 248 245 243 242 241 241 242 243 244 245 246 246 246 245 245 244 243 243 243 244 244 244 245 246 247 248 249 249 249 248 248 247
290 291 291 292 292 291 291 291 292 292 292 291 290 290 290 291 292 292 291 290 290 290 290 291 291 291 291 291 291 290 290 290 290 290 290 290 290 290 289 288 285 282 277 272 267 263 260 258 257 256 256 255 253 251 249 246 243 242 241 241 241 242 243 244 245 246 246 245 245 244 244 244 244 244 244 244 245 245 246 247 248 249 249 248 248 247
292 292 292 292 291 291 291 292 292 292 291 291 290 290 291 291 291 291 290 290 289 290 290 290 289 289 289 290 290 290 291 291 291 291 291 290 290 290 290 289 287 284 280 275 270 266 262 260 258 256 256 255 254 252 249 246 244 242 241 241 241 242 242 243 244 245 245 245 245 245 245 245 245 245 245 245 245 246 246 247 248 248 248 248 248 246
291 291 291 290 290 290 290 291 291 291 291 291 291 291 292 291 291 291 290 290 290 290 290 289 289 288 288 289 289 290 291 291 291 291 291 290 291 291 291 290 288 285 282 278 274 269 265 262 259 257 256 255 254 252 249 247 244 243 242 241 241 241 242 242 243 243 244 245 245 246 246 246 246 246 246 246 247 247 247 248 248 248 248 248 247 246
290 290 290 289 289 290 291 292 293 293 293 293 293 293 292 291 291 291 291 291 291 291 291 290 289 288 288 289 290 291 291 291 291 291 291 290 290 291 291 290 288 286 283 281 277 273 268 264 261 259 257 255 254 252 249 247 244 243 242 241 241 241 242 242 241 240 240 241 244 246 247 248 248 248 248 248 248 249 249 249 249 249 248 247 246 245
290 290 290 291 291 292 293 294 295 295 294 294 294 293 292 292 291 291 292 292 292 292 291 291 291 290 290 290 291 292 292 292 292 291 291 290 290 291 292 291 289 287 284 282 279 276 272 267 264 261 258 256 254 251 249 246 244 243 242 241 241 241 241 241 239 237 236 237 240 243 245 247 248 249 249 250 250 251 251 251 251 250 249 248 246 245
290 290 291 292 292 293 293 294 294 294 293 293 292 292 292 292 292 292 292 292 292 292 292 292 292 292 292 292 293 293 293 293 293 292 291 290 291 291 292 292 290 288 285 283 281 279 275 271 266 262 259 256 254 251 248 246 244 243 242 241 241 241 241 240 238 235 233 234 235 238 242 245 247 248 249 250 251 252 253 253 253 252 250 248 247 245
289 288 289 289 289 290 290 290 290 291 291 291 291 291 291 291 291 292 292 292 292 292 291 291 292 292 293 293 294 295 295 294 293 292 291 291 292 293 293 292 290 287 285 283 282 281 278 273 268 263 259 256 253 250 248 245 244 243 242 242 241 241 241 239 238 235 233 233 233 235 238 242 245 247 249 250 250 251 252 253 253 253 251 249 247 245
285 285 285 286 286 287 287 287 287 288 288 288 289 289 290 290 291 291 291 291 291 291 291 291 292 292 292 293 294 295 295 294 293 292 292 293 294 295 294 292 290 286 283 281 280 280 278 274 269 263 258 254 251 248 246 244 243 243 242 242 242 241 241 240 238 236 235 234 233 234 236 240 243 246 248 249 249 250 251 252 253 253 252 250 248 246
280 282 282 283 284 285 285 285 285 285 286 286 287 287 288 289 289 289 290 290 291 291 291 291 291 292 293 293 294 294 293 293 292 293 294 295 296 296 295 293 289 285 281 278 277 277 277 274 270 264 258 253 249 246 244 243 242 242 242 242 242 242 241 240 239 238 236 235 234 233 234 236 239 243 246 247 248 248 249 251 252 252 252 251 249 246
276 278 278 280 281 281 282 283 283 284 284 284 285 286 286 287 287 288 288 289 290 290 291 291 291 292 292 292 292 292 292 292 292 294 295 297 297 297 295 293 289 284 279 275 274 274 274 273 271 266 261 255 250 246 243 242 241 241 242 242 242 242 241 240 240 239 238 236 234 233 233 234 236 238 240 243 246 248 249 250 251 252 251 250 248 246
274 275 277 278 279 280 281 282 282 283 283 283 283 283 284 284 285 286 287 288 288 289 289 290 290 291 291 291 291 291 291 292 293 295 297 298 298 297 296 293 288 282 277 274 272 272 272 271 270 268 264 259 254 249 245 243 242 241 242 242 242 242 241 240 240 239 238 236 234 232 231 231 232 232 233 238 243 247 250 251 252 252 251 250 248 246
275 276 278 280 281 282 283 283 282 282 282 281 281 281 282 282 283 284 285 286 287 288 288 289 289 289 289 290 290 291 291 292 294 295 296 297 297 297 296 292 287 282 276 273 271 271 270 270 269 268 266 263 258 254 249 246 244 243 242 242 242 241 241 240 239 238 238 236 233 231 229 229 229 231 233 238 242 246 249 251 252 252 251 249 247 245
277 279 282 284 285 286 285 285 285 284 283 282 281 281 281 281 282 282 283 284 285 285 286 287 287 288 288 289 290 291 291 292 293 294 295 296 296 295 294 291 287 282 277 274 272 271 270 269 268 267 265 264 261 258 255 251 248 246 245 244 243 242 241 239 239 238 237 236 234 231 229 227 227 229 232 236 240 244 247 250 252 252 250 248 245 244
278 280 283 286 288 289 289 289 290 289 287 285 283 282 281 280 281 281 282 282 283 283 284 286 287 287 288 290 290 291 291 292 293 293 294 295 294 294 292 289 286 283 279 276 274 273 271 270 268 266 264 263 262 261 259 256 254 251 249 247 245 243 241 240 238 238 238 237 235 233 230 228 228 229 231 234 238 242 245 248 251 251 249 246 244 242
278 280 283 286 288 290 291 292 292 292 291 289 286 284 282 281 280 280 281 281 282 284 285 286 287 288 290 291 291 292 293 293 292 292 293 294 294 293 291 289 286 283 281 278 276 275 273 270 267 264 262 261 261 261 260 259 257 255 253 250 248 245 242 240 239 238 237 237 236 235 233 231 230 231 232 235 238 241 244 247 249 249 247 244 243 242
277 280 283 286 289 290 291 291 292 292 291 291 289 288 286 284 283 283 284 285 286 288 288 288 289 291 293 293 294 295 295 294 293 292 292 293 293 293 292 291 288 285 282 279 277 275 273 270 267 264 262 260 259 259 259 259 258 256 254 251 248 245 242 240 238 237 236 236 235 235 234 233 233 234 235 237 239 242 244 246 247 246 243 242 241 241
277 280 283 286 287 288 289 289 290 290 291 291 291 291 291 290 289 289 290 291 292 291 291 292 294 295 297 298 299 299 298 296 294 292 292 292 293 294 294 293 290 286 283 280 277 274 272 270 267 265 262 260 258 257 257 257 256 255 252 250 246 243 240 238 236 235 234 233 233 233 232 233 233 234 236 238 240 241 243 243 242 241 239 238 238 239
276 278 281 283 284 285 285 286 287 287 288 289 290 291 292 292 292 293 294 295 294 294 294 296 298 299 301 302 302 301 299 297 295 294 293 293 293 294 295 294 291 287 284 281 277 274 272 270 268 266 264 261 258 257 255 254 254 253 250 247 244 240 237 235 233 232 231 231 230 230 230 230 231 232 234 235 237 238 238 238 237 236 235 235 236 238
276 277 278 280 281 281 282 283 284 285 286 286 287 287 287 287 289 291 293 295 294 294 295 297 298 300 301 302 301 300 299 298 297 295 294 293 293 294 294 293 291 289 286 283 280 277 273 270 268 267 265 263 260 257 255 254 252 251 249 247 243 239 235 233 230 229 228 227 227 227 227 227 228 228 229 231 232 232 232 231 231 231 232 233 235 237
278 277 277 277 278 278 279 280 282 283 284 286 286 286 285 285 286 288 291 292 292 292 293 294 296 297 299 299 299 299 299 299 298 296 295 293 292 292 292 292 291 289 287 284 282 279 276 272 270 267 265 263 261 259 257 254 253 251 249 247 244 240 237 233 230 228 227 226 225 224 224 224 224 224 225 225 226 226 226 226 227 228 229 232 234 236
281 280 279 278 277 277 278 279 281 282 284 285 287 288 288 287 287 287 288 289 290 290 290 291 292 294 296 297 298 299 300 300 299 298 297 294 292 291 290 288 288 287 286 283 280 279 277 275 273 269 266 263 261 260 258 256 255 253 251 249 247 244 241 237 234 231 229 227 225 224 223 222 222 222 222 222 222 223 223 224 224 225 228 231 234 236
285 284 283 281 279 278 278 279 280 281 283 285 286 288 288 288 288 288 287 287 288 288 288 289 290 292 294 296 298 300 301 301 300 300 299 295 292 289 287 285 284 283 282 280 277 275 274 274 273 271 268 264 262 260 259 258 257 255 253 251 249 247 244 242 239 236 234 231 229 227 225 224 223 222 222 222 222 222 223 224 224 225 228 232 235 237
288 287 285 283 281 279 278 278 278 279 281 283 284 286 287 288 288 287 287 286 286 286 287 288 289 291 293 295 297 300 301 301 301 300 300 296 292 288 285 282 280 279 278 276 275 273 271 271 271 271 270 266 263 261 260 260 259 257 255 253 251 248 247 245 243 240 238 236 233 231 229 227 225 224 224 223 223 224 224 226 227 229 231 234 236 239
288 288 287 286 283 281 278 277 276 276 278 280 283 285 287 287 287 287 286 286 287 287 288 289 290 292 293 295 296 299 300 301 300 299 298 297 293 288 284 280 278 276 275 274 272 272 271 270 270 270 269 268 266 264 262 261 260 259 257 255 252 250 248 247 245 243 241 239 237 235 233 231 229 227 226 226 226 226 227 228 230 232 234 236 238 240
284 286 288 288 286 283 279 275 273 273 275 278 282 285 287 287 287 287 287 287 288 288 289 290 291 292 294 295 296 297 299 299 297 296 296 296 295 291 286 282 279 276 275 273 271 270 270 269 268 268 268 268 268 267 266 263 261 260 259 258 255 252 250 248 246 245 243 241 239 238 236 234 232 231 230 229 229 229 230 231 232 234 236 238 240 241
281 285 289 291 290 286 280 275 272 272 273 277 281 285 286 287 286 286 286 287 288 289 289 290 291 293 294 295 296 296 296 296 295 294 294 294 294 292 290 286 282 279 276 274 273 271 269 268 267 267 266 267 268 268 268 265 263 261 260 259 258 255 252 250 247 246 244 243 241 239 238 236 235 233 232 231 231 231 232 232 233 235 236 238 239 241
284 287 290 292 291 288 282 277 274 273 274 277 280 282 284 284 284 284 285 286 287 289 290 291 292 293 295 295 296 296 295 295 295 294 294 293 293 292 292 289 287 283 279 277 275 273 270 269 269 268 266 265 265 266 267 266 264 262 260 259 257 256 254 252 249 247 245 243 241 240 239 237 236 235 234 233 232 232 232 233 234 235 236 237 239 240
286 288 291 292 292 290 286 282 279 277 277 277 278 279 280 280 281 282 284 285 287 289 290 291 293 293 294 295 296 296 296 296 296 296 295 294 293 292 291 290 288 286 284 281 278 275 273 271 269 268 267 265 264 264 265 265 264 262 259 257 256 256 255 254 251 248 245 243 241 240 238 238 236 235 234 234 233 233 233 234 235 235 236 237 238 240
286 288 289 291 291 290 288 286 284 281 280 278 278 278 278 279 280 281 282 284 286 288 290 292 293 294 294 294 295 295 296 297 297 297 296 295 294 293 291 290 289 288 286 283 280 277 275 273 271 269 268 267 265 264 263 263 262 261 259 257 256 255 255 254 251 249 246 243 241 239 238 238 237 236 235 235 235 235 235 235 236 236 237 238 239 240
286 288 289 290 290 289 288 287 285 284 283 282 281 280 279 279 280 280 282 283 285 287 289 291 293 294 295 295 295 295 296 296 297 297 297 296 295 294 292 291 289 288 287 285 283 280 277 276 274 272 271 270 268 266 265 263 262 261 260 257 255 253 252 251 250 249 246 244 242 240 239 238 237 237 236 236 236 236 236 236 237 237 238 239 240 241
287 288 289 290 289 288 287 285 284 284 284 284 284 283 282 281 281 281 282 283 285 287 289 290 292 294 295 295 295 295 295 295 296 296 296 296 295 295 294 292 291 289 288 286 284 282 280 278 276 274 273 272 270 269 267 266 264 262 261 258 255 253 251 249 249 248 246 245 243 242 240 239 238 238 238 237 237 237 237 238 238 239 239 241 242 243
285 287 288 289 289 289 288 286 285 284 284 284 285 284 283 282 281 282 283 284 286 287 289 291 292 293 294 295 296 296 296 295 294 294 293 294 294 294 294 292 291 290 288 286 285 283 282 280 278 276 274 272 271 270 268 267 265 264 262 260 257 254 251 249 248 246 244 244 243 243 242 241 240 240 239 239 239 239 239 239 240 240 241 243 244 246
283 284 286 287 288 289 288 288 287 286 285 284 284 283 283 283 282 282 283 285 286 288 289 291 292 292 292 294 296 297 297 295 293 292 291 292 292 292 292 292 291 290 288 286 285 283 282 281 279 278 276 274 272 269 268 266 265 264 262 260 258 255 252 249 246 243 241 240 241 242 242 242 241 241 241 241 240 241 241 241 242 243 244 245 246 248
281 282 284 285 287 288 289 289 289 288 287 286 284 284 284 284 284 284 284 285 286 287 288 289 289 290 291 292 294 295 296 295 294 292 290 290 290 290 290 290 290 289 288 287 285 283 282 281 280 279 278 276 273 270 268 266 265 263 262 260 259 257 255 252 247 242 239 236 236 237 239 240 240 241 241 242 242 242 243 243 244 245 246 247 248 249
280 281 283 285 286 288 289 290 290 290 289 287 286 285 284 285 285 285 286 286 286 286 287 287 287 288 289 291 292 292 293 293 293 292 290 288 288 287 287 287 287 287 286 285 284 282 281 280 279 278 278 276 274 272 270 268 265 263 261 260 258 256 254 252 249 244 240 236 233 233 235 236 237 239 240 241 243 244 244 245 246 247 248 249 250 251
280 281 283 284 286 287 288 289 290 289 289 287 286 285 284 284 284 285 285 286 286 285 285 285 286 287 289 290 290 290 290 290 291 291 290 288 287 286 286 285 285 285 284 283 282 280 279 278 277 277 276 275 275 275 273 270 268 265 261 259 257 255 254 252 250 247 243 238 234 232 233 233 235 237 239 241 242 244 245 246 247 248 249 250 251 252
281 281 282 284 285 287 288 288 289 288 288 286 285 283 282 282 282 283 284 284 285 284 285 285 286 287 289 289 289 289 288 288 288 288 289 289 287 286 285 284 284 283 282 281 279 278 277 275 275 274 273 273 274 275 274 271 269 267 263 260 257 255 253 252 251 248 245 241 238 235 233 233 234 236 238 240 242 244 245 246 247 248 249 250 251 252
280 282 283 284 285 286 287 288 288 287 286 285 283 282 281 280 281 282 283 284 284 284 284 285 286 287 288 288 288 287 286 286 286 286 287 288 288 287 285 283 283 282 281 280 278 276 275 273 273 272 272 272 272 271 272 270 269 267 265 262 259 256 254 253 251 249 247 244 241 239 237 236 237 238 239 241 242 244 245 246 247 248 249 250 251 252
280 281 282 284 285 285 285 285 285 285 284 284 283 282 281 281 281 282 283 284 284 285 285 285 286 286 287 287 286 285 285 284 284 284 285 287 288 287 285 283 281 280 280 278 277 275 273 272 271 272 272 272 272 270 270 269 268 267 265 263 261 259 256 254 252 250 248 246 244 242 241 241 241 241 242 243 244 245 246 247 248 248 249 250 251 252
280 281 282 282 283 283 283 282 282 282 282 283 283 283 283 283 283 284 284 285 285 286 286 286 285 285 285 285 285 284 284 283 283 283 284 286 287 286 285 283 281 279 279 278 277 275 273 271 270 269 270 271 272 272 270 268 267 266 265 264 263 261 259 256 253 251 249 247 246 245 245 245 245 245 246 247 248 249 249 250 250 251 252 253 254 255
Height
2936 2935 2934 2933 2932 2930 2928 2928 2928 2927 2925 2924 2923 2923 2922 2921 2919 2918 2918 2918 2917 2917 2916 2916 2916 2917 2917 2917 2918 2918 2917 2917 2916 2916 2915 2915 2915 2915 2915 2915 2914 2914 2914 2914 2914 2915 2915 2916 2917 2918 2919 2920 2922 2923 2925 2926 2927 2928 2930 2931 2933 2934 2935 2937 2938 2939 2941 2943 2944 2947 2949 2951 2953 2954 2956 2957 2957 2956 2956 2957 2958 2960 2962 2963 2965 2966
2932 2931 2929 2928 2927 2926 2924 2924 2923 2923 2921 2920 2919 2919 2918 2917 2916 2914 2914 2914 2913 2913 2912 2911 2912 2912 2912 2912 2913 2913 2913 2912 2912 2911 2911 2910 2910 2910 2910 2910 2909 2909 2909 2909 2909 2909 2910 2911 2912 2913 2914 2915 2917 2918 2920 2921 2922 2923 2925 2926 2928 2929 2930 2932 2933 2935 2936 2938 2939 2941 2943 2945 2948 2949 2950 2952 2953 2953 2953 2953 2954 2955 2957 2959 2960 2962
2928 2926 2924 2924 2923 2922 2920 2919 2919 2919 2918 2916 2915 2915 2914 2913 2912 2911 2911 2910 2909 2909 2908 2908 2907 2907 2907 2907 2908 2908 2908 2908 2907 2907 2906 2906 2905 2905 2905 2905 2905 2905 2904 2904 2904 2904 2905 2906 2907 2908 2909 2910 2911 2913 2914 2916 2917 2918 2920 2921 2923 2924 2925 2927 2928 2930 2931 2933 2934 2936 2938 2940 2942 2944 2945 2947 2948 2948 2949 2949 2950 2951 2953 2954 2956 2957
2923 2921 2920 2919 2919 2918 2916 2916 2915 2914 2913 2913 2912 2911 2911 2910 2909 2908 2908 2907 2906 2905 2904 2904 2903 2903 2903 2903 2903 2903 2903 2903 2903 2902 2902 2902 2901 2900 2900 2900 2900 2900 2900 2900 2900 2900 2900 2900 2901 2902 2903 2905 2906 2908 2909 2911 2912 2914 2915 2916 2918 2919 2921 2922 2923 2925 2926 2928 2929 2931 2933 2934 2937 2938 2940 2942 2943 2943 2944 2945 2946 2947 2948 2949 2951 2953
2918 2917 2915 2915 2914 2913 2912 2912 2911 2910 2909 2909 2908 2907 2907 2906 2905 2905 2904 2903 2903 2902 2901 2901 2900 2899 2899 2898 2898 2898 2898 2898 2898 2898 2898 2897 2897 2896 2896 2896 2895 2895 2895 2895 2895 2895 2895 2896 2896 2897 2898 2899 2901 2902 2904 2905 2907 2908 2910 2912 2913 2915 2916 2917 2918 2920 2921 2923 2924 2926 2927 2929 2931 2933 2935 2936 2938 2938 2939 2940 2941 2942 2944 2945 2946 2948
2914 2913 2911 2910 2909 2908 2908 2908 2907 2906 2905 2904 2904 2903 2903 2902 2902 2901 2900 2900 2899 2899 2898 2898 2897 2897 2896 2895 2895 2895 2894 2894 2893 2893 2893 2893 2892 2892 2892 2891 2891 2891 2891 2891 2890 2890 2891 2891 2892 2892 2893 2894 2895 2897 2899 2900 2902 2904 2905 2907 2908 2910 2911 2913 2914 2916 2917 2918 2919 2921 2922 2924 2926 2928 2929 2931 2932 2933 2934 2935 2937 2938 2939 2940 2942 2943
2909 2908 2907 2906 2904 2903 2903 2903 2903 2903 2902 2901 2900 2899 2899 2898 2898 2897 2896 2896 2896 2895 2895 2894 2894 2893 2893 2892 2892 2891 2891 2890 2889 2889 2889 2888 2888 2888 2887 2887 2887 2887 2886 2886 2886 2886 2886 2886 2887 2887 2888 2889 2890 2892 2893 2895 2897 2899 2900 2902 2904 2905 2907 2908 2910 2911 2913 2914 2915 2916 2918 2919 2920 2922 2923 2925 2927 2928 2929 2930 2932 2933 2934 2936 2937 2938
2904 2903 2903 2902 2900 2899 2899 2899 2899 2899 2898 2897 2896 2896 2895 2894 2894 2893 2893 2893 2892 2892 2892 2891 2891 2890 2890 2889 2888 2888 2887 2886 2886 2885 2885 2884 2884 2883 2883 2883 2883 2882 2882 2881 2881 2881 2881 2881 2882 2882 2883 2884 2885 2887 2888 2890 2892 2894 2896 2897 2899 2901 2903 2904 2906 2907 2909 2910 2912 2913 2914 2915 2916 2918 2919 2920 2921 2923 2924 2925 2927 2928 2930 2931 2933 2934
2899 2898 2898 2898 2897 2896 2894 2894 2895 2895 2895 2893 2893 2892 2891 2891 2890 2890 2889 2889 2888 2888 2888 2887 2887 2886 2886 2886 2885 2884 2883 2883 2882 2882 2881 2880 2880 2879 2879 2878 2878 2878 2878 2877 2877 2876 2876 2877 2877 2877 2878 2878 2880 2881 2883 2885 2887 2889 2891 2893 2894 2896 2898 2900 2901 2903 2904 2906 2907 2909 2910 2911 2913 2914 2915 2916 2917 2918 2919 2921 2922 2924 2926 2927 2928 2930
2895 2894 2893 2893 2893 2893 2891 2890 2891 2892 2891 2890 2889 2888 2888 2888 2888 2887 2887 2886 2885 2885 2884 2883 2882 2882 2882 2882 2882 2881 2880 2879 2879 2878 2878 2877 2876 2875 2875 2874 2874 2873 2873 2873 2872 2872 2872 2872 2872 2873 2873 2874 2875 2877 2878 2881 2883 2884 2886 2888 2890 2892 2894 2895 2897 2898 2900 2901 2903 2904 2905 2907 2908 2910 2911 2913 2914 2915 2915 2917 2918 2919 2921 2923 2924 2926
2891 2891 2890 2889 2888 2888 2888 2887 2887 2888 2888 2887 2886 2885 2885 2885 2885 2885 2884 2883 2883 2882 2881 2879 2878 2878 2877 2877 2877 2877 2876 2876 2875 2875 2874 2873 2873 2872 2871 2870 2870 2869 2869 2868 2868 2868 2868 2868 2868 2868 2868 2869 2870 2872 2874 2876 2878 2880 2882 2883 2886 2888 2889 2891 2893 2894 2896 2897 2898 2899 2901 2902 2903 2905 2906 2908 2909 2911 2912 2913 2914 2915 2917 2918 2920 2922
2888 2887 2887 2886 2885 2884 2884 2884 2884 2884 2884 2883 2883 2882 2882 2882 2883 2882 2880 2879 2879 2879 2878 2877 2875 2874 2873 2873 2873 2873 2873 2872 2871 2871 2870 2870 2869 2868 2868 2867 2866 2865 2864 2864 2863 2863 2863 2863 2863 2863 2864 2865 2866 2868 2870 2872 2874 2876 2878 2880 2882 2883 2885 2887 2888 2890 2891 2893 2894 2895 2896 2898 2899 2900 2902 2903 2905 2906 2908 2908 2910 2911 2913 2914 2916 2918
2885 2884 2883 2883 2882 2881 2881 2881 2881 2881 2881 2880 2880 2879 2879 2879 2879 2878 2876 2875 2875 2875 2875 2874 2872 2871 2870 2870 2869 2868 2868 2868 2868 2867 2867 2866 2865 2865 2864 2863 2862 2861 2860 2860 2859 2859 2859 2859 2859 2859 2860 2861 2862 2864 2866 2868 2870 2872 2874 2876 2878 2879 2881 2883 2885 2886 2887 2888 2889 2890 2892 2893 2894 2896 2897 2899 2900 2902 2903 2904 2906 2907 2909 2910 2912 2913
2882 2881 2881 2879 2878 2878 2878 2878 2878 2877 2877 2877 2876 2876 2875 2875 2875 2874 2873 2871 2871 2871 2871 2870 2869 2868 2868 2867 2866 2865 2865 2864 2864 2863 2863 2862 2862 2861 2860 2859 2858 2858 2857 2856 2856 2855 2855 2855 2855 2855 2856 2857 2858 2860 2862 2864 2867 2869 2871 2873 2874 2876 2877 2879 2881 2882 2883 2884 2885 2886 2887 2888 2890 2891 2893 2894 2896 2897 2899 2900 2902 2903 2905 2906 2908 2910
2879 2878 2878 2876 2875 2875 2875 2875 2874 2873 2873 2873 2873 2872 2871 2871 2870 2870 2869 2868 2867 2868 2867 2866 2865 2864 2864 2863 2863 2862 2861 2861 2860 2859 2859 2858 2858 2858 2857 2856 2854 2854 2853 2853 2852 2852 2852 2851 2851 2851 2852 2853 2855 2857 2858 2860 2863 2865 2867 2869 2870 2872 2873 2875 2877 2879 2881 2882 2882 2883 2883 2884 2886 2887 2888 2890 2892 2893 2894 2896 2897 2899 2901 2903 2904 2906
2877 2876 2874 2873 2872 2872 2872 2872 2871 2870 2869 2869 2868 2868 2867 2866 2866 2866 2865 2864 2864 2863 2863 2862 2860 2860 2859 2859 2859 2859 2858 2857 2856 2855 2855 2854 2854 2855 2854 2853 2851 2850 2850 2850 2849 2849 2849 2848 2848 2848 2849 2850 2852 2853 2855 2857 2859 2861 2863 2865 2866 2868 2869 2871 2872 2874 2877 2878 2879 2880 2880 2881 2882 2883 2885 2886 2888 2889 2890 2892 2893 2895 2897 2899 2901 2903
2873 2873 2871 2870 2869 2869 2869 2870 2869 2868 2867 2866 2865 2864 2863 2862 2862 2862 2861 2861 2860 2860 2859 2858 2857 2856 2855 2855 2855 2855 2855 2853 2852 2851 2851 2851 2851 2852 2851 2850 2848 2847 2847 2847 2847 2846 2846 2845 2845 2846 2846 2848 2849 2850 2852 2854 2856 2857 2859 2861 2862 2863 2865 2866 2868 2869 2872 2874 2876 2877 2877 2878 2878 2880 2881 2883 2884 2885 2887 2888 2889 2891 2893 2895 2897 2899
2870 2870 2869 2868 2867 2867 2867 2867 2866 2865 2864 2863 2862 2861 2860 2858 2858 2858 2857 2857 2857 2856 2855 2855 2854 2853 2852 2851 2851 2851 2851 2850 2848 2848 2847 2847 2848 2848 2848 2847 2845 2844 2844 2844 2844 2844 2843 2843 2843 2843 2843 2845 2846 2847 2849 2850 2852 2853 2855 2857 2858 2859 2860 2862 2863 2865 2867 2869 2872 2873 2874 2875 2875 2876 2878 2879 2881 2882 2883 2884 2886 2888 2890 2892 2894 2896
2868 2867 2867 2865 2865 2864 2865 2864 2864 2863 2862 2860 2859 2858 2857 2856 2855 2854 2853 2853 2853 2852 2852 2851 2850 2849 2849 2848 2848 2848 2847 2845 2844 2843 2843 2843 2844 2844 2844 2843 2842 2841 2841 2842 2842 2841 2841 2840 2840 2840 2841 2842 2843 2844 2846 2847 2848 2850 2851 2853 2854 2855 2856 2858 2859 2861 2863 2865 2867 2869 2871 2872 2873 2873 2874 2876 2878 2879 2880 2881 2883 2885 2887 2889 2891 2892
2866 2865 2864 2863 2863 2862 2861 2861 2861 2860 2859 2858 2857 2855 2854 2853 2852 2851 2850 2850 2849 2849 2848 2848 2847 2847 2846 2846 2846 2845 2844 2842 2841 2840 2840 2840 2840 2840 2840 2839 2838 2838 2838 2839 2839 2839 2838 2838 2838 2838 2838 2839 2840 2841 2842 2843 2845 2846 2848 2849 2850 2851 2853 2854 2855 2857 2858 2861 2863 2865 2868 2869 2871 2871 2872 2873 2874 2875 2877 2878 2879 2881 2883 2886 2888 2889
2866 2864 2863 2862 2861 2859 2858 2857 2858 2857 2857 2855 2854 2853 2851 2850 2849 2848 2848 2847 2847 2846 2845 2844 2844 2843 2844 2843 2843 2842 2841 2840 2838 2837 2836 2836 2836 2836 2836 2836 2835 2835 2835 2836 2836 2836 2835 2835 2835 2835 2836 2836 2837 2837 2838 2839 2841 2842 2843 2845 2846 2848 2849 2850 2852 2853 2855 2856 2858 2861 2863 2866 2868 2869 2870 2870 2871 2871 2873 2874 2876 2878 2881 2883 2884 2886
2863 2861 2860 2860 2859 2857 2855 2855 2855 2854 2854 2853 2852 2850 2849 2848 2847 2846 2845 2845 2844 2843 2842 2841 2841 2841 2840 2840 2839 2839 2838 2837 2836 2835 2834 2833 2832 2832 2832 2832 2832 2831 2832 2833 2833 2833 2833 2833 2833 2833 2833 2833 2833 2834 2835 2836 2837 2838 2840 2841 2842 2844 2845 2847 2848 2849 2851 2853 2855 2857 2860 2862 2864 2866 2867 2868 2868 2868 2869 2870 2872 2875 2878 2880 2881 2883
2860 2858 2858 2858 2856 2854 2853 2852 2852 2851 2851 2850 2848 2847 2846 2846 2845 2844 2843 2842 2841 2840 2839 2839 2838 2838 2837 2836 2836 2836 2835 2834 2833 2833 2832 2830 2829 2829 2829 2828 2828 2828 2828 2830 2830 2830 2830 2830 2830 2830 2830 2831 2831 2831 2832 2832 2833 2834 2836 2837 2838 2840 2841 2843 2844 2846 2847 2849 2851 2853 2856 2859 2861 2863 2864 2864 2865 2865 2866 2867 2869 2872 2874 2877 2878 2880
2857 2856 2856 2855 2854 2852 2851 2849 2848 2848 2848 2847 2846 2844 2844 2843 2842 2841 2841 2840 2839 2838 2837 2836 2835 2834 2834 2833 2833 2833 2832 2832 2831 2831 2830 2828 2827 2827 2827 2826 2825 2825 2826 2827 2827 2827 2827 2827 2827 2828 2828 2828 2828 2828 2829 2829 2830 2831 2832 2833 2834 2836 2837 2838 2840 2842 2843 2845 2847 2849 2852 2854 2857 2859 2861 2861 2862 2863 2863 2864 2866 2869 2871 2873 2875 2877
2854 2853 2853 2852 2851 2850 2848 2847 2846 2846 2845 2844 2843 2842 2841 2841 2840 2839 2838 2837 2836 2836 2835 2834 2833 2832 2831 2831 2831 2830 2829 2829 2829 2828 2827 2826 2825 2825 2825 2824 2823 2823 2823 2824 2824 2824 2824 2824 2824 2825 2825 2825 2826 2826 2826 2826 2827 2827 2828 2829 2830 2831 2833 2834 2836 2838 2840 2842 2843 2846 2848 2850 2853 2855 2857 2858 2858 2859 2860 2862 2863 2866 2868 2870 2872 2873
2852 2851 2850 2849 2848 2848 2846 2845 2844 2843 2843 2842 2840 2840 2839 2838 2838 2837 2836 2835 2834 2834 2833 2832 2831 2829 2829 2829 2828 2827 2827 2826 2826 2825 2825 2824 2823 2823 2823 2822 2822 2821 2821 2821 2821 2821 2821 2821 2822 2822 2823 2823 2823 2823 2823 2823 2824 2824 2825 2826 2827 2828 2829 2830 2832 2834 2836 2838 2840 2842 2844 2846 2848 2850 2852 2854 2855 2856 2858 2859 2861 2863 2865 2867 2868 2870
2850 2849 2848 2848 2846 2845 2844 2843 2842 2841 2840 2839 2838 2837 2837 2836 2835 2834 2833 2833 2832 2832 2831 2829 2828 2827 2827 2826 2825 2824 2824 2823 2823 2823 2823 2823 2822 2821 2821 2821 2820 2819 2818 2818 2818 2818 2818 2818 2819 2819 2820 2821 2821 2821 2821 2821 2821 2822 2822 2823 2824 2825 2826 2827 2828 2830 2832 2834 2836 2838 2840 2842 2844 2847 2848 2850 2852 2853 2855 2856 2858 2860 2862 2864 2865 2867
2847 2846 2846 2845 2844 2843 2842 2841 2840 2839 2838 2838 2836 2835 2834 2833 2833 2832 2830 2830 2830 2829 2828 2826 2825 2825 2824 2823 2822 2822 2821 2821 2820 2820 2821 2820 2820 2819 2819 2819 2818 2817 2817 2816 2816 2816 2816 2816 2817 2817 2818 2818 2819 2819 2819 2819 2819 2820 2820 2821 2821 2822 2823 2824 2825 2827 2828 2830 2832 2834 2836 2838 2841 2843 2844 2846 2848 2850 2851 2853 2855 2857 2859 2861 2862 2863
2844 2844 2843 2843 2842 2841 2840 2839 2838 2838 2837 2836 2835 2834 2833 2831 2830 2828 2828 2828 2828 2826 2824 2823 2823 2822 2821 2820 2820 2819 2818 2818 2818 2818 2818 2818 2818 2818 2818 2817 2816 2815 2815 2814 2813 2813 2813 2814 2815 2815 2816 2816 2817 2817 2817 2818 2818 2818 2818 2819 2819 2820 2821 2822 2823 2824 2826 2827 2829 2831 2833 2835 2837 2839 2841 2843 2845 2846 2848 2850 2852 2854 2856 2857 2859 2860
2841 2841 2841 2840 2839 2838 2838 2836 2836 2835 2834 2834 2834 2833 2833 2831 2828 2826 2826 2826 2825 2824 2823 2821 2821 2820 2819 2819 2818 2817 2815 2815 2816 2816 2816 2816 2816 2816 2816 2815 2815 2814 2813 2813 2812 2812 2812 2812 2813 2813 2814 2814 2815 2815 2816 2816 2816 2817 2817 2817 2818 2818 2819 2820 2821 2822 2824 2825 2826 2828 2829 2831 2833 2835 2837 2839 2841 2843 2845 2847 2849 2851 2853 2854 2856 2857
2838 2838 2838 2838 2837 2836 2835 2834 2833 2833 2832 2832 2831 2831 2831 2830 2828 2826 2825 2824 2823 2822 2821 2820 2819 2819 2818 2817 2816 2814 2813 2813 2814 2814 2814 2814 2814 2814 2814 2813 2813 2813 2812 2812 2811 2811 2810 2811 2811 2812 2812 2812 2813 2813 2814 2814 2815 2815 2815 2816 2817 2817 2818 2819 2820 2821 2822 2823 2824 2826 2827 2829 2831 2833 2834 2836 2838 2840 2842 2844 2846 2848 2850 2852 2853 2854
2834 2834 2834 2834 2834 2833 2833 2832 2832 2831 2830 2830 2829 2828 2828 2828 2827 2825 2824 2823 2822 2821 2820 2819 2818 2817 2817 2816 2814 2813 2812 2812 2812 2812 2812 2812 2812 2812 2812 2812 2812 2811 2811 2810 2810 2809 2809 2809 2810 2810 2810 2811 2811 2812 2812 2813 2813 2813 2814 2814 2815 2816 2817 2817 2818 2819 2820 2821 2823 2824 2825 2827 2828 2830 2832 2833 2835 2837 2839 2841 2843 2846 2848 2849 2850 2850
2832 2832 2831 2831 2831 2831 2831 2830 2829 2829 2828 2828 2827 2827 2826 2825 2824 2823 2823 2822 2820 2819 2818 2818 2817 2816 2815 2814 2813 2812 2811 2810 2810 2810 2810 2810 2810 2810 2810 2810 2810 2809 2809 2809 2808 2808 2808 2808 2808 2808 2809 2809 2809 2810 2810 2811 2811 2812 2812 2813 2814 2814 2815 2816 2817 2818 2818 2820 2821 2822 2823 2825 2826 2828 2829 2831 2833 2835 2837 2839 2841 2843 2845 2846 2846 2847
2829 2829 2829 2829 2828 2828 2828 2828 2828 2827 2826 2826 2825 2824 2824 2823 2822 2821 2820 2819 2818 2818 2817 2816 2815 2814 2813 2812 2811 2810 2809 2809 2808 2808 2808 2808 2808 2808 2808 2808 2808 2808 2808 2807 2807 2807 2807 2807 2807 2807 2807 2808 2808 2808 2809 2809 2810 2810 2811 2812 2813 2813 2814 2814 2815 2816 2817 2818 2819 2820 2822 2823 2824 2826 2828 2829 2831 2833 2835 2837 2839 2840 2842 2843 2843 2845
2828 2827 2826 2826 2826 2826 2826 2825 2825 2825 2824 2824 2823 2823 2822 2821 2820 2819 2818 2818 2817 2816 2815 2814 2813 2813 2812 2811 2810 2809 2808 2808 2807 2807 2806 2806 2806 2806 2806 2806 2806 2806 2806 2806 2806 2805 2805 2806 2806 2806 2806 2806 2806 2807 2808 2808 2808 2809 2809 2810 2811 2812 2813 2813 2814 2815 2816 2817 2818 2819 2820 2821 2823 2824 2826 2828 2829 2831 2833 2834 2836 2838 2839 2840 2841 2842
2826 2825 2824 2824 2823 2823 2823 2823 2823 2823 2822 2822 2821 2821 2820 2819 2818 2817 2816 2815 2815 2814 2813 2812 2812 2811 2810 2809 2808 2808 2807 2806 2806 2805 2804 2804 2804 2804 2804 2804 2804 2804 2804 2804 2804 2804 2804 2804 2804 2804 2804 2805 2805 2806 2806 2807 2807 2808 2808 2808 2809 2810 2811 2812 2813 2813 2814 2815 2816 2817 2818 2820 2821 2823 2824 2826 2827 2829 2831 2832 2834 2835 2836 2838 2838 2840
2823 2823 2822 2822 2821 2821 2821 2821 2820 2820 2820 2819 2819 2818 2818 2817 2816 2815 2814 2813 2813 2812 2811 2811 2810 2809 2808 2808 2807 2806 2805 2805 2804 2803 2803 2803 2803 2802 2802 2802 2802 2802 2802 2802 2802 2802 2802 2802 2803 2803 2803 2803 2804 2804 2804 2805 2805 2806 2807 2807 2807 2808 2809 2810 2811 2812 2813 2813 2815 2816 2817 2818 2819 2821 2823 2824 2826 2827 2828 2830 2831 2833 2834 2835 2836 2837
2821 2820 2820 2819 2819 2819 2818 2818 2818 2818 2818 2817 2817 2816 2815 2815 2814 2813 2813 2812 2811 2810 2809 2809 2808 2808 2807 2806 2805 2805 2804 2803 2803 2802 2802 2801 2801 2801 2800 2800 2800 2800 2800 2800 2800 2800 2801 2801 2801 2801 2802 2802 2802 2803 2803 2803 2804 2804 2805 2805 2805 2806 2807 2808 2809 2810 2811 2812 2813 2814 2815 2817 2818 2819 2820 2822 2823 2825 2826 2827 2829 2830 2831 2833 2833 2834
2818 2818 2818 2818 2817 2817 2817 2816 2816 2816 2815 2814 2814 2813 2813 2812 2812 2811 2811 2810 2809 2808 2807 2807 2806 2806 2805 2805 2804 2803 2803 2802 2802 2801 2800 2800 2799 2799 2798 2798 2798 2798 2798 2798 2798 2798 2799 2799 2799 2799 2799 2800 2800 2801 2801 2801 2802 2802 2803 2803 2804 2804 2805 2806 2807 2808 2809 2810 2812 2813 2813 2815 2816 2817 2818 2820 2821 2822 2823 2824 2826 2827 2828 2830 2831 2832
2817 2816 2816 2816 2815 2815 2814 2814 2813 2813 2813 2812 2812 2811 2810 2810 2809 2809 2808 2808 2807 2806 2805 2805 2804 2803 2803 2803 2802 2802 2801 2801 2800 2800 2799 2798 2798 2798 2797 2797 2796 2796 2796 2796 2796 2796 2796 2797 2797 2797 2797 2798 2798 2798 2799 2799 2800 2800 2801 2802 2802 2803 2803 2804 2805 2806 2807 2808 2809 2811 2812 2813 2814 2815 2816 2817 2818 2820 2821 2822 2823 2825 2826 2827 2828 2829
2815 2814 2814 2813 2813 2813 2812 2812 2812 2811 2811 2810 2809 2809 2808 2808 2807 2807 2806 2806 2805 2804 2803 2803 2802 2801 2801 2801 2800 2800 2800 2799 2799 2798 2798 2797 2797 2796 2796 2795 2795 2795 2794 2794 2794 2794 2794 2794 2794 2795 2795 2795 2796 2796 2796 2797 2798 2798 2799 2800 2800 2801 2802 2802 2803 2804 2805 2806 2807 2808 2810 2811 2812 2813 2814 2815 2816 2818 2819 2820 2821 2822 2823 2824 2825 2826
2813 2812 2812 2811 2811 2810 2810 2810 2809 2809 2808 2808 2808 2807 2807 2806 2805 2805 2804 2803 2803 2802 2802 2801 2800 2799 2799 2798 2798 2798 2798 2798 2798 2797 2796 2796 2795 2795 2794 2794 2794 2793 2793 2793 2793 2793 2793 2793 2793 2793 2793 2793 2793 2793 2794 2794 2795 2796 2797 2797 2798 2799 2800 2800 2801 2802 2803 2804 2805 2806 2807 2808 2810 2811 2812 2813 2814 2815 2817 2818 2818 2819 2820 2821 2822 2823
2811 2810 2810 2809 2808 2808 2808 2808 2807 2807 2807 2806 2806 2805 2805 2804 2803 2803 2802 2802 2801 2800 2800 2799 2798 2798 2797 2796 2796 2796 2796 2796 2796 2795 2795 2794 2794 2793 2793 2793 2792 2792 2792 2792 2791 2791 2791 2791 2791 2791 2791 2792 2792 2792 2792 2793 2793 2793 2794 2795 2796 2797 2798 2798 2799 2800 2801 2802 2803 2804 2805 2806 2808 2809 2810 2811 2812 2813 2814 2815 2816 2817 2818 2819 2820 2821
2809 2808 2808 2807 2807 2806 2806 2805 2805 2805 2804 2804 2804 2803 2803 2803 2802 2801 2801 2800 2799 2799 2798 2797 2797 2796 2795 2794 2794 2794 2794 2794 2794 2794 2793 2793 2792 2792 2791 2791 2791 2790 2790 2790 2790 2790 2790 2790 2790 2790 2790 2790 2790 2790 2790 2791 2791 2792 2792 2793 2794 2794 2795 2796 2798 2799 2800 2801 2802 2803 2803 2804 2806 2807 2808 2808 2809 2810 2811 2812 2813 2814 2815 2816 2817 2818
2807 2806 2806 2805 2805 2804 2804 2803 2803 2803 2803 2802 2802 2802 2801 2801 2800 2800 2799 2798 2798 2797 2796 2795 2794 2794 2793 2793 2792 2792 2792 2792 2792 2792 2792 2791 2791 2790 2790 2789 2789 2788 2788 2788 2788 2788 2788 2788 2788 2788 2788 2788 2788 2788 2789 2789 2790 2790 2790 2791 2792 2792 2793 2794 2795 2797 2798 2799 2800 2801 2802 2803 2804 2804 2805 2806 2807 2808 2809 2810 2811 2812 2813 2814 2815 2816
2805 2804 2804 2803 2803 2803 2802 2802 2801 2801 2800 2800 2800 2799 2799 2798 2798 2798 2797 2797 2796 2795 2794 2793 2793 2792 2791 2791 2790 2790 2789 2789 2789 2789 2789 2789 2789 2789 2788 2788 2787 2787 2787 2787 2786 2786 2787 2787 2787 2787 2787 2787 2787 2787 2787 2788 2788 2788 2789 2789 2790 2790 2791 2792 2793 2794 2796 2797 2798 2799 2800 2801 2802 2802 2803 2804 2805 2806 2807 2808 2809 2810 2811 2812 2813 2813
2803 2802 2802 2802 2801 2801 2800 2800 2799 2799 2798 2798 2798 2798 2797 2797 2796 2796 2795 2795 2794 2793 2793 2792 2791 2790 2789 2788 2788 2788 2788 2787 2787 2787 2787 2787 2787 2787 2786 2786 2785 2785 2785 2785 2785 2784 2784 2785 2785 2785 2785 2785 2785 2785 2786 2786 2786 2787 2787 2788 2788 2788 2789 2790 2791 2792 2793 2795 2796 2798 2798 2799 2799 2800 2801 2802 2803 2803 2804 2805 2806 2808 2808 2809 2810 2811
2800 2800 2800 2799 2799 2798 2798 2798 2797 2797 2796 2796 2795 2795 2795 2794 2794 2793 2793 2793 2792 2791 2791 2790 2789 2788 2787 2787 2786 2786 2785 2785 2784 2784 2784 2784 2784 2784 2784 2784 2783 2783 2783 2783 2783 2783 2783 2783 2783 2783 2783 2783 2783 2784 2784 2784 2784 2785 2785 2786 2786 2786 2787 2788 2789 2790 2791 2793 2794 2795 2796 2797 2798 2798 2799 2800 2801 2801 2802 2803 2804 2805 2806 2807 2808 2809
2798 2798 2798 2797 2797 2796 2796 2795 2795 2794 2793 2793 2793 2793 2792 2792 2792 2791 2791 2790 2790 2789 2788 2788 2787 2786 2785 2785 2784 2784 2783 2783 2782 2782 2781 2781 2781 2782 2782 2782 2782 2781 2781 2781 2781 2781 2780 2780 2780 2781 2781 2782 2782 2782 2782 2783 2783 2783 2783 2784 2784 2784 2785 2786 2787 2788 2789 2790 2792 2793 2794 2795 2795 2796 2797 2798 2798 2799 2800 2801 2802 2803 2804 2805 2806 2807
2796 2796 2795 2795 2794 2794 2793 2793 2793 2792 2791 2791 2790 2790 2789 2789 2789 2788 2788 2788 2787 2787 2786 2786 2785 2784 2783 2783 2782 2782 2781 2781 2780 2780 2779 2779 2779 2779 2779 2779 2779 2779 2779 2779 2778 2778 2778 2778 2778 2779 2779 2780 2780 2781 2781 2781 2781 2781 2782 2782 2782 2783 2783 2784 2785 2786 2787 2788 2789 2791 2792 2792 2793 2794 2795 2795 2796 2797 2798 2798 2799 2800 2801 2802 2803 2804
2794 2793 2793 2793 2792 2792 2791 2791 2790 2790 2789 2788 2788 2787 2787 2786 2786 2786 2785 2785 2785 2784 2784 2783 2783 2782 2781 2780 2780 2779 2779 2778 2778 2778 2777 2777 2777 2777 2777 2777 2777 2777 2777 2777 2776 2776 2777 2777 2777 2777 2778 2778 2779 2779 2779 2779 2779 2780 2780 2780 2781 2782 2782 2783 2784 2785 2786 2786 2787 2788 2789 2790 2791 2791 2792 2793 2793 2794 2795 2795 2796 2797 2798 2800 2800 2801